Tracking 32963 objects as of 21-Jan-2026
HD Live streaming from Space Station
objects crossing your sky now

TITAN 3C TRANSTAGE DEB

Track TITAN 3C TRANSTAGE DEB now!


NORAD ID: 43282
Int'l Code: 1969-013C
Perigee: 37,192.5 km
Apogee: 39,760.8 km
Inclination: 1.8 °
Period: 1,575.3 minutes
Semi major axis: 44847 km
RCS: Unknown
Launch date: February 9, 1969
Source: United States (US)
Launch site: AIR FORCE EASTERN TEST RANGE (AFETR)

Note: This is SATELLITE DEBRIS
Your satellite tracking list
Your tracking list is empty




NASA's NSSDC Master Catalog

Two Line Element Set (TLE):
1 43282U 69013C   26019.88570371 -.00000136  00000-0  00000-0 0  9996
2 43282   1.8029  56.4123 0286335 234.6273 122.7207  0.91409988 26238
Source of the keplerian elements: AFSPC